Hourly Data Report for September 08, 2017

All times are specified in Local Standard Time (LST). Add 1 hour to adjust for Daylight Saving Time where and when it is observed.

GRISE FIORD CLIMATE
NUNAVUT

76°25'22.040" N
82°54'08.020" W
44.50 m
2402351
71971
NGC

Download Data

Hourly Data (September 2017)
Hourly Data Report for September 8, 2017
Temp Definition
°C
Dew Point Temp Definition
°C
Rel Hum Definition
%
Wind Dir Definition
10's deg

Wind Spd Definition
km/h
Visibility Definition
km
Stn Press Definition
kPa
Hmdx Definition


Wind Chill Definition


Weather Definition


TIME
00:00 0.3 -4.2 71 10 28   99.92     LegendNANA
01:00 0.1 -4.2 73 9 29   99.88     LegendNANA
02:00 0.8 -4.7 67 9 24   99.86     LegendNANA
03:00 1.0 -5.0 64 7 24   99.82     LegendNANA
04:00 1.1 -4.3 67 8 30   99.77     LegendNANA
05:00 1.2 -3.8 69 7 27   99.74     LegendNANA
06:00 1.2 -4.4 66 7 28   99.66     LegendNANA
07:00 1.1 -4.6 66 8 21   99.60     LegendNANA
08:00 1.0 -5.3 63 8 18   99.58     LegendNANA
09:00 1.3 -5.2 62 7 21   99.48     LegendNANA
10:00 1.6 -4.9 62 6 26   99.39     LegendNANA
11:00 1.1 -4.3 67 7 24   99.40     LegendNANA
12:00 1.1 -4.5 66 8 20   99.37     LegendNANA
13:00 1.7 -4.5 63 7 27   99.33     LegendNANA
14:00 1.7 -3.7 67 8 23   99.28     LegendNANA
15:00 2.1 -4.0 64 8 27   99.28     LegendNANA
16:00 2.0 -2.5 72 7 24   99.25     LegendNANA
17:00 1.6 -2.6 74 7 22   99.22     LegendNANA
18:00 1.4 -3.3 71 6 33   99.22     LegendNANA
19:00 1.2 -5.7 60 7 33   99.19     LegendNANA
20:00 0.7 -6.7 58 7 32   99.16     LegendNANA
21:00 0.8 -7.3 55 4 46   99.13     LegendNANA
22:00 0.6 -6.8 58 5 56   99.06     LegendNANA
23:00 0.8 -7.3 55 4 54   99.08     LegendNANA

Notes on Data Quality.

Legend

  • E = Estimated
  • M = Missing
  • NA = Not Available
  • ‡ = Partner data that is not subject to review by the National Climate Archives
Date modified: